User: anonymous
Location: NJAA Observatory
(40.6819°N, 74.8979°W)
Time: 21:42:29
(UTC-04:00)
Language:

Cosmos 220 Rocket - Orbit

View from above orbital plane
View from above orbital plane
View from above satellite
View from above satellite

Ground track
Ground track

The orbit data is extracted from the following two-line orbital elements,

1 03230U 68040B   14211.50118631  .00001079  00000-0  12121-3 0  3081
2 03230 074.0369 187.5032 0030398 056.9253 303.4839 14.87831775478794
Epoch (UTC): 30 July 2014 12:01:42
Eccentricity: 0.0030398
inclination: 74.0369°
perigee height: 583 km
apogee height: 626 km
right ascension of ascending node: 187.5032°
argument of perigee: 56.9253°
revolutions per day: 14.87831775
mean anomaly at epoch: 303.4839°
orbit number at epoch: 47879

The dashed part of the orbit path shows where the satellite is in the earth's shadow,  

DLR